Location: Bovenkerk
(52.2915°N, 4.8336°E)
Time: 07:47:30
(UTC+00:00)

Cosmos 2278 - Pass Details

Date: 09 April 2020
Orbit: 840 x 853 km, 71.1° (Epoch: 02 June)

Event Time Altitude Azimuth Distance (km) Brightness Sun altitude
Rises 22:05:54 0° 326° (NW) 3,407 8.2 -26.3°
Reaches altitude 10° 22:08:27 10° 320° (NW) 2,469 7.1 -26.5°
Maximum altitude 22:13:46 44° 250° (WSW) 1,162 4.4 -26.8°
Enters shadow 22:14:14 43° 236° (SW) 1,177 4.3 -26.8°
